| time (UTC) | temp C | wind direction | speed KPH | gust KPH | rain 1hr cm | rain 24hr cm | rain mn cm | humidity % | barometer mb |
| 20260502130659 | 6 | 270 | 4.8 | 9.7 | 0.00 | 0.08 | 0.08 | 68 | 1013.8 |
| 20260502130157 | 6 | 320 | 9.7 | 11.3 | 0.00 | 0.08 | 0.08 | 68 | 1013.7 |
| 20260502123642 | 5 | 338 | 4.8 | 9.7 | 0.00 | 0.08 | 0.08 | 71 | 1013.7 |
| 20260502123139 | 5 | 337 | 8.0 | 11.3 | 0.00 | 0.08 | 0.08 | 70 | 1013.7 |
| 20260502122635 | 5 | 307 | 3.2 | 4.8 | 0.00 | 0.08 | 0.08 | 69 | 1013.5 |
| 20260502122132 | 5 | 288 | 11.3 | 14.5 | 0.00 | 0.08 | 0.08 | 65 | 1013.3 |
| 20260502121630 | 5 | 281 | 6.4 | 8.0 | 0.00 | 0.08 | 0.08 | 68 | 1013.4 |
| 20260502121127 | 6 | 274 | 14.5 | 17.7 | 0.00 | 0.08 | 0.08 | 68 | 1013.4 |
| 20260502120624 | 6 | 340 | 6.4 | 8.0 | 0.00 | 0.08 | 0.08 | 77 | 1013.6 |
| 20260502120121 | 5 | 299 | 4.8 | 8.0 | 0.00 | 0.08 | 0.08 | 78 | 1013.4 |
| 20260502115619 | 5 | 342 | 3.2 | 3.2 | 0.00 | 0.08 | 0.08 | 80 | 1013.7 |
| 20260502115114 | 5 | 356 | 6.4 | 8.0 | 0.00 | 0.08 | 0.08 | 81 | 1013.5 |
| 20260502114610 | 5 | 18 | 3.2 | 3.2 | 0.00 | 0.08 | 0.08 | 83 | 1013.7 |
| 20260502114108 | 5 | 299 | 8.0 | 14.5 | 0.00 | 0.08 | 0.08 | 86 | 1013.7 |
| 20260502113605 | 5 | 314 | 9.7 | 11.3 | 0.00 | 0.08 | 0.08 | 91 | 1013.8 |
| 20260502113104 | 5 | 56 | 4.8 | 8.0 | 0.00 | 0.08 | 0.08 | 94 | 1013.5 |
| 20260502112601 | 5 | 279 | 1.6 | 1.6 | 0.00 | 0.08 | 0.08 | 95 | 1013.4 |
| 20260502112058 | 5 | 270 | 4.8 | 4.8 | 0.00 | 0.08 | 0.08 | 96 | 1013.4 |
| 20260502111556 | 4 | 285 | 0.0 | 1.6 | 0.00 | 0.08 | 0.08 | 96 | 1013.6 |
| 20260502111053 | 4 | 287 | 0.0 | 0.0 | 0.00 | 0.08 | 0.08 | 95 | 1013.4 |
| 20260502110550 | 3 | 248 | 0.0 | 0.0 | 0.00 | 0.08 | 0.08 | 95 | 1013.5 |
| 20260502110048 | 4 | 255 | 0.0 | 0.0 | 0.00 | 0.08 | 0.08 | 95 | 1013.7 |
| 20260502105545 | 4 | 293 | 0.0 | 0.0 | 0.00 | 0.08 | 0.08 | 95 | 1013.3 |
| 20260502105043 | 3 | 309 | 1.6 | 1.6 | 0.00 | 0.08 | 0.08 | 95 | 1013.3 |
| 20260502104539 | 3 | 320 | 1.6 | 1.6 | 0.00 | 0.08 | 0.08 | 95 | 1013.2 |
| 20260502104037 | 3 | 297 | 0.0 | 0.0 | 0.00 | 0.08 | 0.08 | 95 | 1013.2 |
| 20260502103535 | 3 | 301 | 1.6 | 1.6 | 0.00 | 0.08 | 0.08 | 95 | 1013.1 |
| 20260502103033 | 3 | 266 | 0.0 | 0.0 | 0.00 | 0.08 | 0.08 | 95 | 1013.2 |
| 20260502102528 | 3 | 274 | 0.0 | 0.0 | 0.00 | 0.08 | 0.08 | 95 | 1013.1 |
| 20260502102026 | 3 | 274 | 0.0 | 0.0 | 0.00 | 0.08 | 0.08 | 94 | 1012.9 |
| 20260502101523 | 3 | 275 | 0.0 | 0.0 | 0.00 | 0.08 | 0.08 | 94 | 1013.0 |
| 20260502101022 | 3 | 297 | 0.0 | 0.0 | 0.00 | 0.08 | 0.08 | 94 | 1012.8 |
| 20260502100520 | 3 | 325 | 1.6 | 1.6 | 0.00 | 0.08 | 0.08 | 94 | 1012.9 |
| 20260502091454 | 4 | 283 | 0.0 | 0.0 | 0.00 | 0.08 | 0.08 | 91 | 1012.2 |
| 20260502090952 | 4 | 268 | 0.0 | 0.0 | 0.00 | 0.08 | 0.08 | 91 | 1012.4 |
| 20260502090448 | 5 | 218 | 3.2 | 3.2 | 0.00 | 0.08 | 0.08 | 91 | 1012.3 |
| 20260502071343 | 5 | 276 | 0.0 | 0.0 | 0.00 | 0.08 | 0.08 | 91 | 1012.1 |
| 20260502070841 | 5 | 256 | 0.0 | 0.0 | 0.00 | 0.08 | 0.08 | 91 | 1011.9 |
| 20260502070339 | 5 | 282 | 0.0 | 0.0 | 0.00 | 0.08 | 0.08 | 91 | 1011.8 |
| 20260502065837 | 5 | 279 | 0.0 | 0.0 | 0.00 | 0.08 | 0.08 | 91 | 1012.1 |
| 20260502065335 | 5 | 313 | 1.6 | 1.6 | 0.00 | 0.08 | 0.08 | 91 | 1011.9 |
| 20260502064833 | 5 | 300 | 4.8 | 4.8 | 0.00 | 0.08 | 0.08 | 91 | 1011.8 |
| 20260502064331 | 5 | 280 | 0.0 | 1.6 | 0.00 | 0.08 | 0.08 | 91 | 1012.0 |
| 20260502063827 | 5 | 284 | 3.2 | 3.2 | 0.00 | 0.08 | 0.08 | 91 | 1011.9 |
| 20260502063325 | 5 | 323 | 3.2 | 3.2 | 0.00 | 0.08 | 0.08 | 92 | 1011.9 |
| 20260502062822 | 5 | 314 | 3.2 | 3.2 | 0.00 | 0.08 | 0.08 | 92 | 1011.9 |
| 20260502062320 | 5 | 299 | 1.6 | 3.2 | 0.00 | 0.08 | 0.08 | 92 | 1012.1 |
| 20260502061819 | 5 | 356 | 4.8 | 4.8 | 0.00 | 0.08 | 0.08 | 92 | 1012.1 |
| 20260502061316 | 5 | 349 | 3.2 | 3.2 | 0.00 | 0.08 | 0.08 | 91 | 1011.9 |
| 20260502060811 | 5 | 319 | 1.6 | 1.6 | 0.00 | 0.08 | 0.08 | 91 | 1011.9 |
| 20260502060307 | 5 | 290 | 0.0 | 0.0 | 0.00 | 0.08 | 0.08 | 91 | 1012.1 |
| 20260502055805 | 5 | 55 | 0.0 | 0.0 | 0.00 | 0.08 | 0.08 | 91 | 1012.2 |
| 20260502055305 | 5 | 253 | 0.0 | 0.0 | 0.00 | 0.08 | 0.08 | 91 | 1011.8 |
| 20260502054802 | 5 | 303 | 0.0 | 0.0 | 0.00 | 0.08 | 0.08 | 91 | 1012.0 |
| 20260502054259 | 5 | 243 | 1.6 | 1.6 | 0.00 | 0.08 | 0.08 | 91 | 1012.2 |
| 20260502053756 | 5 | 40 | 1.6 | 1.6 | 0.00 | 0.08 | 0.08 | 91 | 1011.7 |
| 20260502053253 | 5 | 325 | 0.0 | 1.6 | 0.00 | 0.08 | 0.08 | 91 | 1012.0 |
| 20260502052751 | 5 | 294 | 1.6 | 3.2 | 0.00 | 0.08 | 0.08 | 91 | 1011.8 |
| 20260502052249 | 5 | 288 | 4.8 | 4.8 | 0.00 | 0.08 | 0.08 | 91 | 1011.8 |
| 20260502051746 | 5 | 309 | 1.6 | 1.6 | 0.00 | 0.08 | 0.08 | 91 | 1012.0 |
| 20260502051245 | 5 | 293 | 3.2 | 3.2 | 0.00 | 0.08 | 0.08 | 90 | 1011.8 |
| 20260502050741 | 5 | 280 | 4.8 | 4.8 | 0.00 | 0.08 | 0.08 | 90 | 1011.9 |
| 20260502050237 | 5 | 285 | 3.2 | 4.8 | 0.18 | 0.08 | 0.08 | 91 | 1012.0 |
| 20260502045734 | 5 | 273 | 0.0 | 0.0 | 0.30 | 0.08 | 0.08 | 91 | 1012.2 |
| 20260502045231 | 6 | 317 | 6.4 | 9.7 | 0.30 | 0.05 | 0.05 | 91 | 1012.1 |
| 20260502044728 | 6 | 282 | 4.8 | 8.0 | 0.18 | 0.03 | 0.03 | 91 | 1012.1 |
| 20260502044224 | 6 | 274 | 1.6 | 3.2 | 0.00 | 0.00 | 0.00 | 91 | 1012.0 |
| 20260502043722 | 6 | 262 | 1.6 | 1.6 | 0.00 | 0.00 | 0.00 | 91 | 1011.6 |
| 20260502043219 | 6 | 267 | 1.6 | 3.2 | 0.00 | 0.00 | 0.00 | 91 | 1011.6 |
| 20260502042718 | 6 | 254 | 3.2 | 4.8 | 0.00 | 0.00 | 0.00 | 91 | 1011.7 |
| 20260502042216 | 6 | 230 | 6.4 | 8.0 | 0.00 | 0.00 | 0.00 | 91 | 1011.8 |
| 20260502041714 | 6 | 247 | 4.8 | 4.8 | 0.00 | 0.00 | 0.00 | 91 | 1011.5 |
| 20260502041211 | 6 | 222 | 6.4 | 8.0 | 0.00 | 0.00 | 0.00 | 92 | 1011.7 |
| 20260502040708 | 6 | 235 | 4.8 | 8.0 | 0.00 | 0.00 | 0.00 | 92 | 1011.7 |
| 20260502040204 | 6 | 233 | 6.4 | 8.0 | 0.00 | 0.00 | 0.00 | 93 | 1011.7 |
| 20260502035701 | 6 | 217 | 4.8 | 8.0 | 0.00 | 0.38 | 0.38 | 94 | 1011.3 |
| 20260502035157 | 6 | 217 | 4.8 | 4.8 | 0.00 | 0.38 | 0.38 | 95 | 1011.2 |
| 20260502034655 | 6 | 274 | 1.6 | 1.6 | 0.00 | 0.38 | 0.38 | 95 | 1011.3 |
| 20260502034153 | 6 | 269 | 0.0 | 0.0 | 0.00 | 0.38 | 0.38 | 95 | 1011.5 |
| 20260502033651 | 6 | 236 | 9.7 | 11.3 | 0.00 | 0.38 | 0.38 | 95 | 1011.6 |
| 20260502033149 | 6 | 265 | 3.2 | 4.8 | 0.13 | 0.38 | 0.38 | 95 | 1011.6 |
| 20260502032645 | 7 | 242 | 3.2 | 8.0 | 0.13 | 0.38 | 0.38 | 95 | 1011.8 |
| 20260502032141 | 7 | 251 | 0.0 | 0.0 | 0.00 | 0.36 | 0.36 | 95 | 1011.7 |
| 20260502031639 | 7 | 247 | 3.2 | 3.2 | 0.00 | 0.36 | 0.36 | 95 | 1011.6 |
| 20260502031136 | 6 | 214 | 1.6 | 3.2 | 0.00 | 0.36 | 0.36 | 95 | 1011.7 |
| 20260502030635 | 6 | 239 | 1.6 | 1.6 | 0.00 | 0.36 | 0.36 | 95 | 1011.7 |
| 20260502030133 | 6 | 266 | 0.0 | 0.0 | 0.00 | 0.36 | 0.36 | 95 | 1011.6 |
| 20260502025629 | 6 | 237 | 0.0 | 1.6 | 0.00 | 0.36 | 0.36 | 95 | 1011.6 |
| 20260502025128 | 6 | 248 | 0.0 | 0.0 | 0.00 | 0.36 | 0.36 | 95 | 1011.5 |
| 20260502024625 | 6 | 262 | 1.6 | 1.6 | 0.00 | 0.36 | 0.36 | 94 | 1011.8 |
| 20260502024123 | 6 | 236 | 3.2 | 3.2 | 0.00 | 0.36 | 0.36 | 94 | 1011.5 |
| 20260502023621 | 6 | 233 | 1.6 | 3.2 | 0.18 | 0.36 | 0.36 | 94 | 1011.9 |
| 20260502023118 | 6 | 253 | 0.0 | 0.0 | 0.30 | 0.36 | 0.36 | 94 | 1011.9 |
| 20260502022615 | 6 | 239 | 1.6 | 1.6 | 0.13 | 0.33 | 0.33 | 94 | 1011.8 |
| 20260502022112 | 6 | 256 | 1.6 | 1.6 | 0.30 | 0.33 | 0.33 | 94 | 1011.7 |
| 20260502021609 | 6 | 250 | 1.6 | 1.6 | 0.18 | 0.30 | 0.30 | 94 | 1011.9 |
| 20260502021106 | 6 | 267 | 0.0 | 0.0 | 0.00 | 0.28 | 0.28 | 93 | 1011.7 |
| 20260502020604 | 6 | 274 | 1.6 | 1.6 | 0.00 | 0.28 | 0.28 | 93 | 1011.8 |
| 20260502020100 | 6 | 278 | 0.0 | 0.0 | 0.00 | 0.28 | 0.28 | 93 | 1011.6 |
| 20260502015558 | 6 | 254 | 0.0 | 0.0 | 0.13 | 0.28 | 0.28 | 93 | 1011.6 |
| 20260502015054 | 7 | 221 | 1.6 | 3.2 | 0.13 | 0.28 | 0.28 | 93 | 1011.6 |
| 20260502014551 | 7 | 250 | 0.0 | 0.0 | 0.00 | 0.25 | 0.25 | 93 | 1011.7 |
| 20260502014048 | 7 | 244 | 1.6 | 1.6 | 0.00 | 0.25 | 0.25 | 93 | 1011.9 |
| 20260502013543 | 7 | 256 | 0.0 | 1.6 | 0.00 | 0.25 | 0.25 | 92 | 1011.8 |
| 20260502013040 | 7 | 225 | 3.2 | 3.2 | 0.00 | 0.25 | 0.25 | 92 | 1011.7 |
| 20260502012538 | 7 | 260 | 1.6 | 1.6 | 0.00 | 0.25 | 0.25 | 92 | 1011.7 |
| 20260502012035 | 7 | 253 | 0.0 | 0.0 | 0.18 | 0.25 | 0.25 | 92 | 1011.7 |
| 20260502011532 | 7 | 225 | 1.6 | 1.6 | 0.18 | 0.25 | 0.25 | 92 | 1011.6 |
| 20260502011028 | 7 | 252 | 1.6 | 1.6 | 0.00 | 0.23 | 0.23 | 91 | 1011.8 |
| 20260502010526 | 7 | 234 | 3.2 | 3.2 | 0.00 | 0.23 | 0.23 | 91 | 1011.9 |
| 20260502010022 | 7 | 245 | 0.0 | 0.0 | 0.13 | 0.23 | 0.23 | 91 | 1011.7 |
| 20260502005520 | 7 | 234 | 1.6 | 1.6 | 0.13 | 0.23 | 0.23 | 90 | 1011.5 |
| 20260502005017 | 7 | 217 | 3.2 | 3.2 | 0.13 | 0.23 | 0.23 | 90 | 1011.9 |
| 20260502004513 | 7 | 201 | 1.6 | 1.6 | 0.18 | 0.20 | 0.20 | 89 | 1011.3 |
| 20260502004010 | 7 | 229 | 1.6 | 1.6 | 0.18 | 0.20 | 0.20 | 89 | 1011.5 |
| 20260502003508 | 7 | 214 | 1.6 | 3.2 | 0.18 | 0.20 | 0.20 | 89 | 1011.5 |
| 20260502003004 | 7 | 221 | 1.6 | 1.6 | 0.18 | 0.18 | 0.18 | 89 | 1011.6 |
| 20260502002501 | 7 | 212 | 3.2 | 3.2 | 0.18 | 0.18 | 0.18 | 88 | 1011.7 |
| 20260502001958 | 7 | 228 | 1.6 | 3.2 | 0.00 | 0.15 | 0.15 | 88 | 1011.5 |
| 20260502001455 | 7 | 213 | 3.2 | 3.2 | 0.13 | 0.15 | 0.15 | 88 | 1011.6 |
| 20260502000953 | 7 | 200 | 4.8 | 4.8 | 0.13 | 0.15 | 0.15 | 88 | 1011.5 |
| 20260502000454 | 7 | 194 | 1.6 | 1.6 | 0.30 | 0.15 | 0.15 | 87 | 1011.4 |
| 20260501235947 | 7 | 182 | 3.2 | 3.2 | 0.18 | 0.13 | 0.13 | 87 | 1011.3 |
| 20260501235443 | 7 | 193 | 4.8 | 4.8 | 0.13 | 0.10 | 0.10 | 86 | 1011.3 |
| 20260501234938 | 7 | 172 | 3.2 | 3.2 | 0.13 | 0.10 | 0.10 | 85 | 1011.1 |
| 20260501234435 | 7 | 218 | 1.6 | 3.2 | 0.30 | 0.10 | 0.10 | 83 | 1011.2 |
| 20260501233934 | 8 | 220 | 1.6 | 1.6 | 0.18 | 0.08 | 0.08 | 80 | 1011.0 |
| 20260501233431 | 8 | 271 | 0.0 | 0.0 | 0.13 | 0.05 | 0.05 | 79 | 1011.3 |
| 20260501232927 | 8 | 217 | 3.2 | 3.2 | 0.13 | 0.05 | 0.05 | 77 | 1011.2 |
| 20260501232424 | 8 | 237 | 3.2 | 3.2 | 0.00 | 0.03 | 0.03 | 78 | 1011.4 |
| 20260501231922 | 8 | 225 | 3.2 | 3.2 | 0.00 | 0.03 | 0.03 | 75 | 1011.0 |
| 20260501231420 | 9 | 232 | 1.6 | 1.6 | 0.00 | 0.03 | 0.03 | 72 | 1011.0 |
| 20260501230917 | 9 | 223 | 3.2 | 3.2 | 0.00 | 0.03 | 0.03 | 68 | 1011.1 |
| 20260501230416 | 9 | 224 | 4.8 | 4.8 | 0.00 | 0.03 | 0.03 | 67 | 1010.8 |
| 20260501225913 | 10 | 199 | 11.3 | 11.3 | 0.00 | 0.03 | 0.03 | 66 | 1010.8 |
| 20260501225411 | 10 | 200 | 9.7 | 11.3 | 0.00 | 0.03 | 0.03 | 63 | 1010.7 |
| 20260501224906 | 10 | 200 | 9.7 | 11.3 | 0.00 | 0.03 | 0.03 | 63 | 1010.8 |
| 20260501224404 | 10 | 209 | 6.4 | 8.0 | 0.00 | 0.03 | 0.03 | 65 | 1010.5 |
| 20260501223900 | 10 | 243 | 1.6 | 3.2 | 0.00 | 0.03 | 0.03 | 62 | 1010.5 |
| 20260501223356 | 10 | 214 | 6.4 | 8.0 | 0.00 | 0.03 | 0.03 | 60 | 1010.6 |
| 20260501222852 | 10 | 189 | 4.8 | 8.0 | 0.00 | 0.03 | 0.03 | 59 | 1010.7 |
| 20260501222350 | 10 | 245 | 9.7 | 11.3 | 0.00 | 0.03 | 0.03 | 59 | 1010.9 |
| 20260501221846 | 10 | 245 | 1.6 | 1.6 | 0.00 | 0.03 | 0.03 | 59 | 1010.8 |
| 20260501221344 | 10 | 212 | 4.8 | 4.8 | 0.00 | 0.03 | 0.03 | 58 | 1010.6 |
| 20260501220842 | 10 | 218 | 4.8 | 8.0 | 0.00 | 0.03 | 0.03 | 60 | 1010.8 |
| 20260501220339 | 10 | 245 | 3.2 | 3.2 | 0.00 | 0.03 | 0.03 | 58 | 1010.8 |
| 20260501215835 | 10 | 236 | 11.3 | 12.9 | 0.00 | 0.03 | 0.03 | 58 | 1010.9 |
| 20260501215331 | 10 | 225 | 6.4 | 8.0 | 0.00 | 0.03 | 0.03 | 58 | 1010.8 |
| 20260501214827 | 10 | 254 | 11.3 | 12.9 | 0.00 | 0.03 | 0.03 | 58 | 1010.8 |
| 20260501214322 | 10 | 229 | 9.7 | 12.9 | 0.00 | 0.03 | 0.03 | 58 | 1010.8 |
| 20260501213819 | 10 | 240 | 8.0 | 11.3 | 0.00 | 0.03 | 0.03 | 59 | 1010.8 |
| 20260501213315 | 11 | 228 | 8.0 | 11.3 | 0.00 | 0.03 | 0.03 | 58 | 1010.9 |
| 20260501212811 | 11 | 251 | 3.2 | 4.8 | 0.00 | 0.03 | 0.03 | 57 | 1010.6 |
| 20260501212308 | 11 | 233 | 6.4 | 9.7 | 0.00 | 0.03 | 0.03 | 57 | 1010.8 |
| 20260501211805 | 11 | 213 | 11.3 | 11.3 | 0.00 | 0.03 | 0.03 | 57 | 1010.6 |
| 20260501211302 | 11 | 303 | 4.8 | 4.8 | 0.00 | 0.03 | 0.03 | 55 | 1010.7 |
| 20260501210759 | 11 | 231 | 6.4 | 8.0 | 0.00 | 0.03 | 0.03 | 55 | 1010.7 |
| 20260501210255 | 11 | 262 | 1.6 | 3.2 | 0.00 | 0.03 | 0.03 | 55 | 1010.9 |
| 20260501205752 | 11 | 216 | 8.0 | 11.3 | 0.00 | 0.03 | 0.03 | 56 | 1010.9 |
| 20260501205249 | 11 | 247 | 8.0 | 9.7 | 0.00 | 0.03 | 0.03 | 56 | 1010.9 |
| 20260501204746 | 11 | 196 | 14.5 | 16.1 | 0.00 | 0.03 | 0.03 | 53 | 1010.6 |
| 20260501204243 | 11 | 265 | 8.0 | 9.7 | 0.00 | 0.03 | 0.03 | 53 | 1010.6 |
| 20260501203739 | 11 | 260 | 4.8 | 4.8 | 0.00 | 0.03 | 0.03 | 54 | 1010.6 |
| 20260501203236 | 11 | 217 | 3.2 | 3.2 | 0.00 | 0.03 | 0.03 | 53 | 1010.5 |
| 20260501202733 | 11 | 229 | 3.2 | 4.8 | 0.00 | 0.03 | 0.03 | 55 | 1010.7 |
| 20260501202230 | 11 | 203 | 8.0 | 9.7 | 0.00 | 0.03 | 0.03 | 53 | 1010.7 |
| 20260501201727 | 11 | 220 | 6.4 | 8.0 | 0.00 | 0.03 | 0.03 | 52 | 1010.8 |
| 20260501201224 | 11 | 235 | 9.7 | 11.3 | 0.00 | 0.03 | 0.03 | 54 | 1010.8 |
| 20260501200721 | 11 | 232 | 8.0 | 9.7 | 0.00 | 0.03 | 0.03 | 55 | 1010.7 |
| 20260501200218 | 11 | 214 | 9.7 | 11.3 | 0.00 | 0.03 | 0.03 | 53 | 1010.8 |
| 20260501195715 | 11 | 223 | 8.0 | 9.7 | 0.00 | 0.03 | 0.03 | 53 | 1010.7 |
| 20260501195211 | 11 | 217 | 4.8 | 4.8 | 0.00 | 0.03 | 0.03 | 53 | 1010.8 |
| 20260501194707 | 11 | 212 | 11.3 | 12.9 | 0.00 | 0.03 | 0.03 | 56 | 1010.7 |
| 20260501194202 | 11 | 258 | 9.7 | 11.3 | 0.00 | 0.03 | 0.03 | 53 | 1010.7 |
| 20260501193659 | 11 | 241 | 4.8 | 4.8 | 0.00 | 0.03 | 0.03 | 55 | 1010.6 |
| 20260501193158 | 11 | 270 | 6.4 | 9.7 | 0.00 | 0.03 | 0.03 | 55 | 1011.0 |
| 20260501192655 | 11 | 243 | 6.4 | 9.7 | 0.00 | 0.03 | 0.03 | 54 | 1010.8 |
| 20260501192152 | 11 | 262 | 8.0 | 14.5 | 0.00 | 0.03 | 0.03 | 52 | 1010.9 |
| 20260501191649 | 11 | 227 | 0.0 | 1.6 | 0.00 | 0.03 | 0.03 | 51 | 1010.9 |
| 20260501191147 | 11 | 225 | 3.2 | 4.8 | 0.00 | 0.03 | 0.03 | 52 | 1010.9 |
| 20260501190643 | 11 | 277 | 11.3 | 17.7 | 0.00 | 0.03 | 0.03 | 49 | 1010.8 |
| 20260501190138 | 12 | 257 | 6.4 | 8.0 | 0.00 | 0.03 | 0.03 | 49 | 1010.8 |
| 20260501185634 | 12 | 278 | 0.0 | 1.6 | 0.00 | 0.03 | 0.03 | 48 | 1010.8 |
| 20260501185130 | 12 | 276 | 1.6 | 3.2 | 0.00 | 0.03 | 0.03 | 47 | 1010.8 |
| 20260501184627 | 12 | 276 | 8.0 | 8.0 | 0.00 | 0.03 | 0.03 | 47 | 1010.5 |
| 20260501184121 | 12 | 243 | 4.8 | 4.8 | 0.00 | 0.03 | 0.03 | 48 | 1010.8 |
| 20260501183618 | 12 | 220 | 12.9 | 12.9 | 0.00 | 0.03 | 0.03 | 50 | 1010.8 |
| 20260501183115 | 12 | 251 | 3.2 | 4.8 | 0.00 | 0.03 | 0.03 | 46 | 1010.9 |
| 20260501182611 | 12 | 248 | 4.8 | 4.8 | 0.00 | 0.03 | 0.03 | 47 | 1011.0 |
| 20260501182109 | 12 | 213 | 8.0 | 9.7 | 0.00 | 0.03 | 0.03 | 48 | 1010.9 |
| 20260501181606 | 12 | 218 | 11.3 | 12.9 | 0.00 | 0.03 | 0.03 | 48 | 1010.9 |
| 20260501181102 | 12 | 288 | 1.6 | 1.6 | 0.00 | 0.03 | 0.03 | 49 | 1011.1 |
| 20260501180601 | 12 | 230 | 3.2 | 4.8 | 0.00 | 0.03 | 0.03 | 48 | 1010.9 |
| 20260501180056 | 11 | 264 | 4.8 | 8.0 | 0.00 | 0.03 | 0.03 | 51 | 1011.1 |
| 20260501175553 | 11 | 215 | 6.4 | 8.0 | 0.00 | 0.03 | 0.03 | 48 | 1011.0 |
| 20260501175050 | 12 | 230 | 4.8 | 4.8 | 0.00 | 0.03 | 0.03 | 47 | 1010.9 |
| 20260501174547 | 12 | 216 | 6.4 | 8.0 | 0.00 | 0.03 | 0.03 | 49 | 1011.0 |
| 20260501174045 | 12 | 225 | 8.0 | 9.7 | 0.00 | 0.03 | 0.03 | 48 | 1010.8 |
| 20260501173542 | 12 | 243 | 1.6 | 3.2 | 0.00 | 0.03 | 0.03 | 46 | 1010.9 |
| 20260501173038 | 12 | 234 | 4.8 | 4.8 | 0.00 | 0.03 | 0.03 | 47 | 1011.1 |
| 20260501172534 | 12 | 243 | 1.6 | 3.2 | 0.00 | 0.03 | 0.03 | 50 | 1010.9 |
| 20260501172030 | 11 | 296 | 1.6 | 3.2 | 0.00 | 0.03 | 0.03 | 48 | 1011.2 |
| 20260501171526 | 11 | 282 | 8.0 | 9.7 | 0.00 | 0.03 | 0.03 | 46 | 1011.0 |
| 20260501171022 | 11 | 261 | 1.6 | 1.6 | 0.00 | 0.03 | 0.03 | 47 | 1011.4 |
| 20260501170519 | 11 | 295 | 8.0 | 9.7 | 0.00 | 0.03 | 0.03 | 47 | 1011.4 |
| 20260501170017 | 11 | 265 | 6.4 | 11.3 | 0.00 | 0.03 | 0.03 | 50 | 1011.4 |
| 20260501165515 | 12 | 193 | 12.9 | 12.9 | 0.00 | 0.03 | 0.03 | 51 | 1011.2 |
| 20260501165012 | 11 | 279 | 1.6 | 3.2 | 0.00 | 0.03 | 0.03 | 50 | 1011.3 |
| 20260501164510 | 11 | 215 | 6.4 | 8.0 | 0.00 | 0.03 | 0.03 | 49 | 1011.4 |
| 20260501164006 | 12 | 227 | 16.1 | 16.1 | 0.00 | 0.03 | 0.03 | 49 | 1011.4 |
| 20260501163502 | 12 | 265 | 14.5 | 16.1 | 0.00 | 0.03 | 0.03 | 49 | 1011.5 |
| 20260501162959 | 11 | 210 | 6.4 | 8.0 | 0.00 | 0.03 | 0.03 | 52 | 1011.7 |
| 20260501162455 | 11 | 217 | 11.3 | 12.9 | 0.00 | 0.03 | 0.03 | 57 | 1011.7 |
| 20260501161952 | 11 | 224 | 12.9 | 14.5 | 0.00 | 0.03 | 0.03 | 53 | 1011.8 |
| 20260501161449 | 11 | 212 | 14.5 | 14.5 | 0.00 | 0.03 | 0.03 | 52 | 1011.9 |
| 20260501160946 | 10 | 291 | 4.8 | 4.8 | 0.00 | 0.03 | 0.03 | 51 | 1011.8 |
| 20260501160443 | 11 | 296 | 6.4 | 8.0 | 0.00 | 0.03 | 0.03 | 52 | 1011.8 |
| 20260501155940 | 11 | 213 | 8.0 | 11.3 | 0.00 | 0.03 | 0.03 | 51 | 1011.9 |
| 20260501155437 | 11 | 277 | 3.2 | 3.2 | 0.00 | 0.03 | 0.03 | 52 | 1012.0 |
| 20260501154934 | 11 | 209 | 4.8 | 8.0 | 0.00 | 0.03 | 0.03 | 54 | 1011.8 |
| 20260501154431 | 11 | 237 | 11.3 | 14.5 | 0.00 | 0.03 | 0.03 | 54 | 1012.0 |
| 20260501153928 | 11 | 241 | 11.3 | 16.1 | 0.18 | 0.03 | 0.03 | 56 | 1012.2 |
| 20260501153426 | 11 | 119 | 1.6 | 1.6 | 0.18 | 0.03 | 0.03 | 49 | 1012.1 |
| 20260501152921 | 11 | 122 | 0.0 | 0.0 | 0.00 | 0.00 | 0.00 | 50 | 1012.4 |
| 20260501152419 | 11 | 122 | 0.0 | 1.6 | 0.00 | 0.00 | 0.00 | 51 | 1012.1 |
| 20260501151916 | 11 | 113 | 4.8 | 4.8 | 0.00 | 0.00 | 0.00 | 53 | 1012.3 |
| 20260501151413 | 11 | 106 | 6.4 | 8.0 | 0.00 | 0.00 | 0.00 | 57 | 1012.4 |
| 20260501150909 | 11 | 103 | 4.8 | 4.8 | 0.00 | 0.00 | 0.00 | 55 | 1012.5 |
| 20260501150405 | 10 | 103 | 6.4 | 8.0 | 0.00 | 0.00 | 0.00 | 56 | 1012.4 |
| 20260501145901 | 10 | 103 | 6.4 | 8.0 | 0.00 | 0.00 | 0.00 | 58 | 1012.4 |
| 20260501145358 | 10 | 102 | 12.9 | 14.5 | 0.00 | 0.00 | 0.00 | 59 | 1012.4 |
| 20260501144855 | 10 | 102 | 8.0 | 11.3 | 0.00 | 0.00 | 0.00 | 59 | 1012.3 |
| 20260501144351 | 10 | 103 | 6.4 | 8.0 | 0.00 | 0.00 | 0.00 | 58 | 1012.4 |
| 20260501143847 | 10 | 103 | 9.7 | 11.3 | 0.00 | 0.00 | 0.00 | 61 | 1012.4 |
| 20260501143344 | 9 | 103 | 1.6 | 1.6 | 0.00 | 0.00 | 0.00 | 59 | 1012.4 |
| 20260501142841 | 10 | 102 | 4.8 | 4.8 | 0.00 | 0.00 | 0.00 | 59 | 1012.4 |
| 20260501142337 | 9 | 103 | 4.8 | 8.0 | 0.00 | 0.00 | 0.00 | 60 | 1012.3 |
| 20260501141833 | 10 | 103 | 3.2 | 3.2 | 0.00 | 0.00 | 0.00 | 61 | 1012.5 |
| 20260501141330 | 9 | 103 | 8.0 | 9.7 | 0.00 | 0.00 | 0.00 | 61 | 1012.4 |
| 20260501140828 | 8 | 103 | 6.4 | 8.0 | 0.00 | 0.00 | 0.00 | 62 | 1012.6 |
| 20260501140324 | 10 | 103 | 11.3 | 12.9 | 0.00 | 0.00 | 0.00 | 61 | 1012.8 |
| 20260501135820 | 10 | 103 | 4.8 | 9.7 | 0.00 | 0.00 | 0.00 | 59 | 1012.8 |
| 20260501135318 | 9 | 103 | 4.8 | 4.8 | 0.00 | 0.00 | 0.00 | 62 | 1012.8 |
| 20260501134815 | 10 | 103 | 4.8 | 8.0 | 0.00 | 0.00 | 0.00 | 61 | 1012.9 |
| 20260501134311 | 8 | 103 | 4.8 | 4.8 | 0.00 | 0.00 | 0.00 | 65 | 1013.0 |
| 20260501133808 | 8 | 103 | 0.0 | 0.0 | 0.00 | 0.00 | 0.00 | 67 | 1012.9 |